Location: Yaln?zdam
(36.7686°N, 29.8278°E)
Time: 09:16:29
(UTC+00:00)

Daily predictions for brighter satellites

Satellite Brightness Start Highest point End
(mag) Time Altitude Azimuth Time Altitude Azimuth Time Altitude Azimuth
ADEOS 3.9 17:24:45 10° SE 17:29:45 49° ENE 17:34:45 10° N
Cosmos 1814 Rocket 4.4 17:25:08 10° S 17:29:50 39° ESE 17:34:36 10° NE
MOS 1 Rocket 3.9 17:24:51 10° S 17:30:11 77° W 17:35:34 10° NNW
CZ-4B R/B 4.1 17:26:14 10° SE 17:31:07 33° ENE 17:35:56 10° N
Cosmos 1441 Rocket 3.0 17:29:47 10° N 17:33:20 86° E 17:36:52 10° S
Cosmos 374 Rocket 4.3 17:30:07 10° SSW 17:33:56 83° ESE 17:38:16 10° NE
Aureole 1 Rocket 4.4 17:31:50 10° NNW 17:37:21 65° WSW 17:44:06 10° S
Helios 1A 4.4 17:35:43 10° NE 17:38:26 17° E 17:41:08 10° SE
Cosmos 1758 Rocket 3.8 17:34:16 10° N 17:38:33 73° W 17:42:48 10° S
Cosmos 1400 Rocket 4.0 17:35:51 10° SE 17:38:37 20° E 17:41:23 10° NE
CSL-04 Rocket 3.9 17:34:11 10° SSE 17:39:22 52° ENE 17:44:32 10° N
Cosmos 1709 Rocket 4.4 17:33:52 10° NNW 17:40:12 70° W 17:46:31 10° S
Cosmos 2058 Rocket 4.5 17:39:38 10° SE 17:42:55 21° E 17:46:13 10° NE
Cosmos 2151 3.3 17:38:57 10° N 17:42:58 44° E 17:46:58 10° SSE
Atlas Centaur 2 4.2 17:39:08 10° WSW 17:43:23 19° SSW 17:48:10 10° SSE
SKYMED 3 4.4 17:39:55 10° N 17:43:52 82° WNW 17:47:46 10° SSW
Cosmos 1825 Rocket 4.1 17:41:12 10° N 17:45:14 38° E 17:49:13 10° SSE
Okean 1-7 Rocket 3.5 17:40:55 10° N 17:45:17 69° E 17:49:38 10° SSE
NOSS 3-1 (C) 3.7 17:43:09 10° SSE 17:46:52 26° ESE 17:50:58 10° NE
CSL-04 Debris 4.3 17:43:31 10° SSE 17:48:54 64° ENE 17:54:18 10° N
Cosmos 1602 Rocket 3.6 17:45:31 10° N 17:49:50 80° W 17:54:06 10° S
Cosmos 858 Rocket 4.5 17:47:46 10° NNW 17:52:57 82° ENE 17:58:06 10° SSE
Resurs 01 Rocket 2.6 17:53:08 10° S 17:57:22 48° W 18:01:36 10° NNW
USA 186 1.3 17:54:44 10° SSE 17:57:27 70° ENE 18:00:10 10° N
Cosmos 1656 4.4 17:52:49 10° N 17:58:02 38° ENE 18:02:22 14° SE
Cosmos 1606 Rocket 3.7 17:55:52 10° S 18:00:17 83° W 18:04:45 10° N
SL-08 R/B 4.1 17:59:17 10° N 18:04:03 58° WNW 18:08:43 10° SSW
Cosmos 1743 3.9 18:05:51 10° NNE 18:08:33 21° ENE 18:09:46 18° ESE
Cosmos 158 Rocket 4.2 18:05:13 10° S 18:10:17 52° ESE 18:15:28 10° NNE
Cosmos 1933 3.4 18:07:24 10° S 18:11:08 51° E 18:14:53 10° NNE
Terra 2.8 18:12:21 17° ESE 18:15:02 29° ENE 18:19:04 10° N
USA 308 2.3 18:12:50 10° SSW 18:16:22 45° SE 18:19:01 10° ENE
NOSS 3-1 (A) 4.2 18:17:20 17° ESE 18:17:20 17° ESE 18:20:30 10° ENE
DELTA 2 R/B (1) 3.5 18:15:07 10° WSW 18:20:38 75° SSE 18:26:11 10° ENE
Cosmos-2242 3.6 18:19:45 20° SE 18:22:04 35° E 18:25:58 10° NNE
Cosmos 1953 Rocket 3.6 18:18:35 10° N 18:23:00 61° E 18:26:00 20° SSE
BREEZE-M DEB (TANK) 4.4 18:18:05 10° WNW 18:23:04 51° SW 18:27:27 18° SE
MetOp-B 4.3 18:19:26 17° SSE 18:23:32 60° ENE 18:28:48 10° N
Cosmos 1782 4.0 18:20:13 10° SSW 18:23:41 40° W 18:27:10 10° N
Feng Yun 1-1 Rocket 4.5 18:18:37 10° S 18:24:11 74° WSW 18:29:57 10° NNW
CZ-4C R/B 3.2 18:18:02 10° NNW 18:25:36 77° ENE 18:32:23 19° SE
Cosmos 1833 Rocket 2.6 18:21:50 10° SSW 18:27:26 70° ESE 18:33:03 10° NNE
Gbstr 26 Del rocket 4.2 18:22:18 10° WNW 18:27:29 42° SW 18:30:31 18° SSE
CZ-4B R/B 2.9 18:25:44 16° S 18:28:58 81° WSW 18:32:57 10° NNW
MOS 1 4.3 18:25:02 16° SSE 18:29:37 74° ENE 18:35:18 10° N
USA 234 3.2 18:23:24 10° NE 18:29:58 86° SE 18:36:31 10° SW
Nadezhda 1 Rocket 3.9 18:26:22 10° S 18:32:26 79° E 18:38:35 10° N
Cosmos 2074 Rocket 4.0 18:26:26 10° N 18:32:39 83° W 18:38:39 11° S
CZ-4 R/B 3.7 18:35:49 10° SW 18:38:49 21° W 18:41:49 10° NW
Yuri Rocket 4.4 18:36:24 10° SW 18:38:58 20° S 18:38:58 20° S
ATLAS CENTAUR R/B 3.0 18:36:51 10° WSW 18:40:08 32° NW 18:43:33 10° N
Cosmos 2084 Rocket 3.3 18:36:48 10° SSW 18:41:04 73° ESE 18:45:19 10° NE
Okean O Rocket 1.5 18:39:10 23° SSE 18:41:51 86° W 18:46:13 10° NNW
Cosmos 2154 Rocket 4.0 18:37:40 10° N 18:43:54 82° W 18:49:05 15° S
IRS-1A Rocket 4.5 18:40:34 25° SE 18:44:02 62° ENE 18:49:47 10° N
Cosmos 1356 Rocket 4.2 18:45:46 30° E 18:45:53 30° E 18:49:31 10° NNE
Cosmos 2184 Rocket 4.3 18:40:26 10° NNW 18:46:39 67° W 18:52:37 11° S
Okean-O 2.5 18:46:42 32° SSE 18:48:43 79° ENE 18:53:07 10° N
CZ-4B R/B 4.4 18:50:30 13° SSW 18:54:26 41° W 18:59:01 10° NNW
ATLAS 3B R/B 4.4 18:55:58 15° E 18:55:58 15° E 18:58:41 10° ENE
Cosmos 1125 Rocket 4.0 18:49:52 10° N 18:54:58 46° ENE 18:56:43 34° ESE
SPOT 5 3.7 18:52:11 14° SSW 18:55:33 39° W 18:59:36 10° NNW
Helios 1B rocket 3.8 18:54:10 15° SSW 18:56:38 30° W 18:59:54 10° NW
Cosmos 1980 Rocket 3.8 18:54:10 10° N 18:58:15 20° NE 19:00:07 17° E
SAR-Lupe-2 3.7 18:58:21 52° E 18:58:36 54° ENE 19:02:04 10° N
Ariane Rocket 3.9 18:58:08 29° E 18:59:21 33° ENE 19:03:51 10° N
IKONOS-2 4.3 18:55:40 10° NNE 18:59:48 83° ESE 19:01:27 35° S
Cosmos 2360 4.1 18:54:29 10° NNW 19:00:14 88° ENE 19:02:46 35° SSE
Cosmos 1315 Rocket 3.9 19:03:44 28° ENE 19:03:44 28° ENE 19:06:19 10° NNE
BlueWalker 3 3.9 19:01:33 10° NNW 19:04:13 19° NNE 19:05:19 17° NE
Meteor 1-26 Rocket 4.2 19:03:24 24° S 19:07:04 82° E 19:13:04 10° N
Cosmos 1570 Rocket 4.0 19:02:21 13° SSW 19:07:05 84° WNW 19:12:23 10° NNE
IRS-1C Rocket 4.2 19:08:03 42° SE 19:09:37 59° ENE 19:14:47 10° N
Cosmos 836 Rocket 4.3 19:08:38 27° S 19:11:32 81° ESE 19:16:44 10° NNE
SeaSat 1 4.3 19:11:55 15° ENE 19:13:17 17° NE 19:16:21 10° NNE
DEBRIS 4.2 19:12:46 10° WNW 19:16:27 22° WSW 19:16:38 22° SW
USA 245 3.3 19:16:02 66° SSE 19:16:35 83° ENE 19:21:25 10° N
Cosmos 1346 Rocket 2.7 19:14:35 10° NNW 19:18:15 68° W 19:18:27 66° WSW
Lacrosse 5 rocket 1.8 19:19:35 10° NNW 19:22:30 41° NNE 19:22:30 41° NNE
ERS-1 Rocket 3.8 19:23:02 26° SSW 19:25:23 43° W 19:30:09 10° NNW
Cosmos 2218 Rocket 4.1 19:20:16 10° N 19:26:33 62° E 19:28:10 47° SE
Cosmos 1812 Rocket 3.3 19:26:43 78° ESE 19:26:45 78° E 19:31:03 10° N
Cosmos 1867 3.8 19:23:19 10° NNW 19:28:42 58° ENE 19:29:42 50° E
Cosmos 1697 Rocket 2.6 19:24:43 10° NNW 19:30:25 83° ENE 19:31:38 57° SSE
SPOT 3 Rocket 3.4 19:30:56 61° SE 19:31:45 76° ENE 19:36:53 10° N
Cosmos 773 Rocket 3.8 19:30:54 49° SSW 19:32:19 90° ESE 19:37:28 10° NNE
ISS -1.2 19:34:35 10° NNW 19:36:37 15° NNE 19:36:54 15° NNE
Meteor 2-6 Rocket 4.2 19:38:12 54° S 19:39:36 81° E 19:45:23 10° N
Spot 2 Rocket 3.9 19:38:47 43° SSW 19:40:00 55° W 19:44:56 10° NNW
Cosmos 1959 Rocket 4.4 19:35:51 10° N 19:42:04 79° E 19:43:26 57° SSE
Cosmos 2181 Rocket 3.9 19:40:46 48° S 19:42:42 88° E 19:49:04 10° N
Okean 1 4.2 19:44:40 40° N 19:44:40 40° N 19:47:06 10° N
Cosmos 2082 Rocket 2.0 19:44:48 69° SE 19:45:12 72° ESE 19:50:48 10° NNE
Cosmos 1238 Rocket 3.7 19:47:47 41° N 19:47:47 41° N 19:50:07 10° N
Cosmos 1536 4.4 19:43:16 10° N 19:45:17 25° NNE 19:45:17 25° NNE
Cosmos 1900 4.3 19:43:55 10° NNW 19:49:03 75° WSW 19:49:16 73° SW
Terra 3.5 19:50:59 21° SW 19:52:30 25° W 19:56:20 10° NW
Cosmos 2366 rocket 4.2 19:54:03 10° NNW 20:00:20 65° W 20:01:54 49° SSW
Nadezhda 3 Rocket 4.0 20:02:39 61° E 20:02:48 61° E 20:08:54 10° NNE
COSMOS 2406 3.4 20:04:50 57° ENE 20:04:50 57° ENE 20:09:42 10° NNE
Meteor 1-10 Rocket 4.2 20:05:54 71° E 20:05:54 71° E 20:11:44 10° NNE
Cosmos 2221 3.4 20:06:41 45° WNW 20:06:41 45° WNW 20:10:14 10° N
Timation 1 Rocket 4.1 20:06:25 80° SSE 20:06:40 82° ESE 20:12:41 10° NNE
DELTA 2 R/B (1) 3.8 20:01:38 10° W 20:07:09 66° N 20:08:34 47° ENE
NOSS 3-1 (A) 3.9 20:04:32 20° WSW 20:07:23 43° NW 20:12:31 10° NNE
Cosmos 2333 Rocket 4.4 20:17:39 10° NNE 20:20:17 13° NE 20:21:43 12° ENE
Cosmos 44 4.5 20:18:13 10° NW 20:21:35 34° W 20:21:35 34° W
Meteor 2-9 Rocket 4.3 20:22:39 10° N 20:27:56 73° NE 20:27:56 73° NE
SL-08 R/B 4.4 20:27:47 10° N 20:34:12 78° ENE 20:34:12 78° ENE
Meteor 1-19 Rocket 4.4 20:35:51 74° W 20:35:55 74° W 20:41:58 10° N
Meteor 1-27 Rocket 3.9 20:41:42 66° N 20:41:42 66° N 20:46:27 10° N
Cosmos 1980 Rocket 2.7 20:37:06 10° NNW 20:41:51 50° W 20:41:51 50° W
Cosmos 2239 Rocket 4.4 20:36:30 10° N 20:42:32 77° WNW 20:42:32 77° WNW
ATLAS 3B R/B 2.8 20:43:07 70° SW 20:44:08 88° WNW 20:51:55 10° NNE
USA 229 DEB 3.9 20:49:10 50° ENE 20:49:10 50° ENE 20:53:59 10° NE
USA 229 3.9 20:49:18 49° ENE 20:49:18 49° ENE 20:54:03 10° NE
SeaSat 1 3.3 20:51:33 45° NW 20:51:33 45° NW 20:55:03 10° NNW
Meteor 2-13 Rocket 4.4 20:51:22 78° NNW 20:51:22 78° NNW 20:57:08 10° N
SL-16 R/B 3.2 20:49:59 10° N 20:54:46 39° NE 20:54:46 39° NE
Cosmos 2322 Rocket 3.7 20:58:43 10° N 21:03:25 27° ENE 21:03:25 27° ENE
USA 59 Rocket 2.9 21:06:31 10° NNW 21:06:31 10° NNW 21:06:32 10° NNW
Meteor 1-11 Rocket 4.4 21:01:07 10° NNW 21:05:33 46° WNW 21:05:33 46° WNW
Cosmos 2278 4.3 21:16:23 10° NNW 21:20:48 52° N 21:20:48 52° N
Cosmos 2360 Rocket 3.5 21:17:30 10° N 21:22:07 32° NE 21:22:07 32° NE
Cosmos 2333 Rocket 2.9 21:59:37 10° NNW 22:03:43 49° NNW 22:03:43 49° NNW
Cosmos 2219 Rocket 3.0 22:11:19 10° NNW 22:15:55 46° NE 22:15:55 46° NE
CZ-2C R/B 4.3 22:16:51 24° ENE 22:16:52 24° ENE 22:20:55 10° NNE
Cosmos 2297 Rocket 4.1 22:29:07 20° E 22:29:07 20° E 22:32:05 10° NE
SL-16 R/B 4.1 22:34:33 10° NW 22:36:36 19° WNW 22:36:36 19° WNW
CENTAUR R/B 3.3 22:32:10 10° NNW 22:40:56 89° ENE 22:42:49 63° SSE
Cosmos 2322 Rocket 3.7 22:42:24 10° NW 22:45:11 26° WNW 22:45:11 26° WNW
Meteor 2-10 Rocket 4.4 22:41:59 10° NNW 22:46:21 50° NW 22:46:21 50° NW
IDEFIX/ARIANE 42P 4.2 22:45:56 10° NE 22:49:36 25° E 22:49:36 25° E
Cosmos 2227 Rocket 4.3 22:53:35 15° E 22:53:35 15° E 22:56:32 10° ENE
COSMOS 2428 3.7 22:50:40 10° N 22:56:03 41° ENE 22:56:49 39° E
Resurs 1-4 Rocket 4.3 22:57:58 10° ENE 23:00:36 14° E 23:01:07 14° E
Cosmos 2360 Rocket 3.9 23:01:30 10° NW 23:03:50 22° WNW 23:03:50 22° WNW
CZ-2C R/B 3.4 23:01:33 10° NNE 23:06:46 73° N 23:06:46 73° N
Meteor 1-15 Rocket 4.4 23:05:01 10° N 23:10:07 70° N 23:10:07 70° N
Cosmos 2016 Rocket 4.1 23:07:14 10° N 23:12:50 67° WNW 23:12:50 67° WNW
Meteor 1-21 4.3 23:17:14 72° NNE 23:17:14 72° NNE 23:22:18 10° N
NOSS 3-2 (A) 4.1 23:14:41 10° NNW 23:22:35 90° ENE 23:26:15 41° SSE
ADEOS II 4.3 23:19:57 10° ENE 23:22:40 14° E 23:24:07 13° ESE
NPP 4.3 23:18:45 10° NNE 23:23:50 47° E 23:23:50 47° E
Meteor 1-12 Rocket 4.3 23:19:34 10° N 23:25:16 72° E 23:25:17 72° E
Cosmos 1110 Rocket 4.4 23:25:59 10° NNW 23:30:12 57° NNW 23:30:12 57° NNW
Cosmos 1452 Rocket 3.7 23:31:34 10° NNW 23:36:07 67° NNW 23:36:07 67° NNW
CZ-2D R/B 3.5 23:32:16 10° NE 23:37:03 30° E 23:38:06 28° ESE
Cosmos 2237 Rocket 3.5 23:33:38 10° N 23:38:49 36° ENE 23:42:58 15° ESE
NOSS 0 Rocket 4.1 23:33:40 10° NNW 23:39:53 68° ENE 23:41:49 44° SE
Cosmos 1953 4.1 23:36:44 10° N 23:38:33 27° N 23:38:33 27° N
Tiangong 1.0 23:43:17 14° ENE 23:43:17 14° ENE 23:43:52 10° ENE
H-2A R/B 3.0 23:38:08 10° NNE 23:41:01 42° NE 23:41:01 42° NE
OAO 2 Rocket 4.2 23:44:45 40° ESE 23:44:45 40° ESE 23:48:05 10° E
Cosmos 2263 Rocket 4.0 23:42:17 17° ESE 23:43:52 20° E 23:47:48 10° NE
Cosmos 44 Rocket 3.5 23:43:26 10° NNW 23:48:13 69° NE 23:48:13 69° NE
Aureole 3 Rocket 4.3 23:47:29 10° N 23:50:29 31° NE 23:50:29 31° NE
Meteor 1-16 Rocket 4.0 23:47:23 10° N 23:52:52 84° W 23:53:01 82° SW
